Wind_Speed
3 2 3 3 4 5 5 6 7 7 8 8 8 8 9 11 13 15 15 14 14 12 12 11 10 9 7 7 8 9 10 11 10 9 9 10 10 10 10 10 12 12 12 11 11 11 12
6 5 5 6 6 7 8 9 9 9 9 9 9 10 11 13 15 16 16 16 15 14 14 13 12 10 10 13 11 9 8 8 9 10 11 11 11 12 13 13 14 15 13 14 15 15 17
8 8 8 8 8 8 9 9 10 9 9 9 11 12 15 17 18 18 18 18 17 17 16 15 15 14 13 13 12 10 9 8 10 12 13 12 12 13 14 14 16 16 18 17 18 18 20
9 9 9 9 9 9 9 10 10 9 10 11 14 16 18 18 19 19 20 20 18 18 17 17 15 15 16 16 13 7 7 8 11 13 13 14 14 15 16 17 19 19 21 22 19 17 20
9 9 10 9 9 9 9 9 9 10 12 15 15 16 18 19 19 20 20 20 21 20 18 18 17 15 15 12 11 12 13 17 18 17 16 16 16 17 18 19 20 20 19 21 20 21 22
9 9 9 9 9 9 8 8 10 11 14 16 18 18 17 19 20 20 19 19 20 20 20 18 15 8 7 10 14 19 24 24 19 19 18 18 18 20 20 17 18 18 19 21 22 22 24
10 9 9 9 9 9 9 10 12 15 16 17 17 18 19 18 17 18 20 22 24 25 20 22 19 16 21 21 22 22 22 22 20 18 17 17 19 20 15 18 19 22 24 25 25 23 30
9 9 9 9 9 10 11 13 15 17 16 17 18 18 18 19 20 23 24 25 24 24 24 24 22 19 21 22 17 13 11 10 10 11 12 12 15 12 13 14 16 19 23 26 26 20 27
9 9 9 10 11 12 13 15 16 15 17 18 19 19 22 24 26 26 24 23 21 20 19 17 10 6 5 4 3 3 4 5 8 11 12 15 15 17 16 18 20 23 24 25 24 27 32
11 11 11 11 13 14 14 14 15 16 18 19 21 24 26 25 24 22 20 19 16 16 11 5 3 2 3 4 1 8 7 10 11 13 18 13 9 12 19 20 19 27 24 25 26 23 20
13 11 13 13 13 13 13 14 16 18 20 23 25 24 22 21 19 16 16 14 13 11 4 4 1 2 3 4 4 9 14 19 19 21 23 22 26 26 27 24 19 27 25 25 24 23 23
13 13 13 13 13 12 13 16 18 20 23 23 21 20 19 18 17 15 13 12 12 4 3 3 3 5 8 9 16 22 23 23 25 25 22 26 22 24 25 26 25 25 27 27 24 21 7
15 15 13 13 13 14 16 17 19 21 20 20 20 19 19 18 17 14 12 10 6 3 4 3 5 9 15 21 24 23 21 14 12 19 25 34 37 27 19 19 13 13 15 4 3 2 7
15 15 15 14 13 15 16 19 19 18 19 19 20 19 18 17 14 12 10 9 4 4 7 11 14 16 21 20 14 10 16 24 20 19 26 20 20 4 5 9 14 19 16 9 6 4 10
15 16 16 15 14 15 17 17 19 19 20 20 20 18 15 13 12 10 10 5 3 6 9 13 20 14 7 5 11 18 19 21 15 9 10 9 18 9 9 22 28 18 21 21 19 21 5
16 16 16 14 14 15 16 17 19 20 20 20 18 15 11 10 11 10 10 7 8 10 15 17 13 8 13 20 21 19 13 13 12 15 16 13 26 25 16 16 19 23 24 13 10 3 9
15 14 14 14 14 14 16 17 19 19 19 16 15 13 10 12 12 12 10 10 11 13 13 10 15 19 24 25 23 18 8 17 20 21 19 21 21 43 35 31 24 20 30 28 25 22 10
14 14 14 14 15 15 17 18 18 17 16 14 14 13 13 11 13 12 10 11 12 14 17 19 23 23 22 21 21 17 13 15 18 21 21 24 25 30 41 44 38 38 38 23 21 9 17
14 15 14 15 16 16 18 18 17 15 14 13 13 13 11 13 12 13 10 13 19 21 20 18 17 23 26 26 19 12 14 17 20 20 16 23 10 15 19 29 27 12 9 8 14 15 22
15 16 13 15 15 17 18 17 14 14 13 14 14 12 14 15 7 12 17 19 17 19 22 21 23 24 26 27 24 20 24 23 27 26 27 31 31 23 25 31 35 35 36 34 26 14 14
16 15 12 14 15 16 17 15 13 13 13 14 15 14 14 15 17 17 18 18 20 19 22 21 21 22 25 25 29 22 23 30 38 30 16 19 29 30 37 44 42 42 40 44 40 31 24
15 14 12 14 14 14 13 13 13 13 14 15 15 15 15 17 17 18 19 20 22 19 19 22 20 21 21 25 26 32 28 27 26 26 25 27 27 26 32 28 35 38 44 36 31 31 35
15 14 12 13 14 14 12 12 14 15 16 17 16 16 16 16 16 19 18 18 21 20 18 18 20 20 18 18 19 21 20 17 18 19 16 12 19 22 18 26 21 17 14 18 18 11 13
14 13 12 13 13 12 12 12 13 15 16 16 17 17 17 16 16 17 17 17 17 17 14 12 14 15 13 16 20 18 11 6 3 10 9 17 23 17 17 13 2 1 5 11 9 11 13
13 12 12 12 12 13 13 14 14 15 16 17 18 19 18 16 17 15 16 15 14 13 10 11 9 12 16 20 18 13 7 9 10 11 9 16 18 12 11 18 10 18 25 22 13 7 11
12 11 12 11 12 13 14 15 16 17 17 19 21 20 18 17 14 14 13 12 9 6 6 6 9 12 14 16 12 4 3 8 5 10 13 15 13 13 15 7 5 19 27 30 13 4 17
12 13 12 11 11 13 16 17 18 19 20 22 22 20 19 15 13 9 10 9 5 5 5 9 13 14 11 11 8 4 5 8 6 9 14 18 14 10 16 9 10 11 28 21 15 14 19
11 13 10 11 12 13 15 18 19 21 22 21 20 19 16 16 11 11 10 6 7 8 12 18 15 8 9 6 6 4 6 10 15 15 12 10 10 6 13 9 6 24 27 19 17 17 25
12 10 10 11 13 14 16 19 21 22 21 20 18 18 14 12 12 11 6 7 9 12 19 13 10 10 7 7 11 12 20 18 20 6 10 7 11 15 9 12 23 23 26 23 21 25 29
Wind_Direction
216 246 281 300 306 312 315 317 317 320 322 326 330 336 341 346 346 345 343 339 333 321 316 316 319 325 314 312 296 279 266 270 268 274 275 278 275 272 267 263 259 263 263 266 271 271 277
243 252 268 284 291 301 308 311 312 315 319 323 325 327 328 329 331 332 335 333 332 327 311 305 303 306 301 312 308 279 274 268 260 271 273 274 269 264 265 263 264 265 271 269 280 276 278
251 262 273 280 289 299 304 305 306 310 313 317 320 320 319 319 319 318 321 326 327 329 321 309 298 293 292 298 301 281 276 285 284 278 278 273 275 275 275 278 274 274 275 270 279 280 271
253 262 271 278 287 294 297 300 305 307 310 312 313 314 316 317 318 319 318 320 318 318 316 312 305 295 288 288 285 254 261 298 293 285 283 278 279 279 277 275 275 279 280 281 286 286 272
246 259 265 272 280 286 294 302 310 312 312 311 313 316 316 316 316 317 318 317 316 314 313 310 307 301 292 284 263 254 267 293 295 284 282 280 280 282 283 280 284 283 280 283 285 286 275
246 254 266 274 279 286 291 302 311 312 312 314 314 317 319 317 315 315 315 315 316 315 316 314 307 308 291 286 283 280 283 289 286 280 278 279 282 283 284 286 281 288 282 280 284 286 284
244 253 261 275 282 284 295 308 309 306 305 306 309 312 312 311 310 310 312 311 312 310 306 300 292 282 288 289 285 283 281 281 281 279 279 283 284 291 293 276 279 281 278 280 285 289 288
261 270 277 280 282 282 287 297 303 304 307 310 310 309 308 308 308 310 310 310 311 307 307 299 287 278 280 286 287 284 285 288 286 285 287 286 289 290 288 284 286 282 281 286 293 297 298
257 263 273 282 283 282 287 295 300 303 307 308 308 309 309 309 309 309 308 308 309 309 314 305 308 279 280 291 306 348 346 325 311 308 304 295 293 293 292 290 289 284 282 291 296 301 295
256 263 271 275 283 287 291 294 301 306 307 308 309 309 309 309 309 310 312 310 309 315 306 303 314 254 317 334 326 336 332 320 317 312 310 305 297 296 299 294 295 294 296 297 297 299 290
257 267 278 285 287 289 294 299 304 304 308 311 311 311 313 314 315 316 313 311 315 321 1 310 277 242 308 356 315 330 319 309 308 304 296 287 290 291 287 295 292 290 294 293 292 291 289
262 266 275 277 280 284 291 300 304 308 311 311 313 315 317 317 317 315 310 311 313 300 264 295 289 283 303 313 314 316 316 310 308 301 297 299 297 291 293 291 287 284 285 287 286 272 255
265 272 273 277 282 288 297 301 305 308 310 313 315 315 314 313 314 313 312 315 311 223 292 282 289 303 306 309 308 307 306 312 320 317 302 300 298 296 285 282 285 289 275 301 291 192 233
265 269 274 277 282 292 299 302 304 308 311 312 313 314 313 310 311 311 313 313 257 260 275 288 301 304 303 305 303 305 310 310 307 293 290 295 299 278 287 283 296 296 255 210 223 241 282
270 271 273 275 282 288 297 302 308 313 315 316 314 313 314 314 314 317 314 294 252 278 283 296 305 311 290 285 300 301 304 294 285 270 254 290 275 260 262 279 287 272 247 276 256 263 262
262 267 269 270 279 289 298 305 309 312 313 312 311 313 315 313 311 310 307 279 262 273 286 300 305 285 287 291 294 296 293 276 267 261 261 268 283 283 278 269 263 265 270 255 233 231 254
258 259 261 272 280 290 299 305 307 309 311 311 313 317 313 313 308 308 300 280 280 285 293 296 291 287 290 295 296 296 268 272 270 257 268 272 270 272 277 278 286 291 258 250 257 250 253
249 254 266 273 282 293 298 303 305 308 310 311 313 317 313 308 307 304 291 289 287 286 287 287 289 287 286 288 289 290 261 250 277 289 294 285 284 281 278 278 276 267 273 266 249 258 239
244 255 265 276 286 297 300 302 307 310 311 310 311 313 313 310 305 300 289 290 294 294 292 286 279 286 288 286 294 275 269 266 267 288 309 305 273 309 293 289 280 270 251 299 263 276 252
242 251 260 275 289 294 299 305 309 307 309 314 317 315 314 309 296 297 299 297 290 292 292 291 287 288 287 287 285 280 282 278 279 281 285 297 286 270 278 278 294 297 275 286 298 265 264
240 250 263 278 288 299 304 306 309 312 314 315 317 313 309 300 301 300 297 292 291 289 291 293 294 292 294 299 301 298 294 295 299 309 315 304 287 291 283 283 287 285 285 286 286 278 275
246 255 264 277 288 293 296 303 309 311 314 314 314 312 310 307 304 300 300 299 296 293 292 295 289 290 297 299 298 305 312 315 314 320 324 313 300 306 304 313 292 283 283 286 281 277 278
249 259 275 285 290 293 301 306 310 315 314 316 317 314 314 313 307 305 303 298 297 303 308 305 305 310 320 315 315 315 307 314 307 313 321 322 324 314 290 323 309 290 342 281 250 273 259
255 267 278 283 288 297 302 306 313 311 312 316 319 320 319 314 310 307 301 300 303 309 312 301 304 313 327 333 327 330 318 333 314 342 327 341 337 304 288 334 274 158 330 50 93 108 117
261 272 278 284 292 298 307 314 314 317 321 321 321 323 323 320 315 308 305 307 312 312 310 309 308 314 320 325 330 342 346 344 328 344 344 352 334 337 330 317 270 26 11 359 339 342 17
263 275 281 287 296 305 310 317 321 323 324 326 326 328 328 328 321 310 308 310 310 302 288 292 305 309 315 327 340 321 313 312 326 331 346 323 325 331 335 342 345 18 4 356 325 99 0
274 271 277 291 301 309 315 320 323 327 330 330 330 333 335 342 333 313 317 321 311 310 307 319 318 313 308 325 336 285 310 314 317 310 323 331 332 332 336 319 283 287 346 348 346 319 333
270 270 284 294 304 315 318 321 326 329 329 331 334 338 345 344 337 327 318 293 303 302 316 325 328 327 324 339 312 302 287 318 303 312 309 298 311 320 322 289 283 310 322 348 322 313 311
259 272 287 299 313 318 320 325 327 328 330 332 338 338 349 347 328 313 306 283 281 296 313 325 318 312 301 312 304 306 301 306 295 302 297 286 306 312 288 287 301 306 324 319 315 313 310
Height
3142 3142 3143 3142 3142 3142 3141 3140 3139 3138 3137 3136 3135 3134 3133 3132 3130 3128 3126 3124 3122 3120 3119 3118 3116 3114 3113 3113 3111 3110 3109 3109 3109 3109 3109 3109 3109 3108 3108 3107 3107 3106 3106 3106 3105 3104 3103
3142 3142 3142 3142 3142 3141 3140 3140 3139 3137 3136 3136 3134 3133 3132 3131 3129 3127 3124 3123 3121 3119 3117 3116 3115 3113 3113 3112 3110 3108 3107 3107 3106 3107 3107 3106 3105 3105 3105 3105 3105 3104 3104 3103 3103 3102 3100
3142 3142 3142 3142 3141 3140 3139 3139 3138 3136 3135 3135 3134 3132 3131 3129 3127 3125 3123 3121 3119 3117 3116 3114 3112 3111 3110 3110 3107 3106 3106 3106 3106 3105 3104 3104 3103 3104 3103 3102 3101 3101 3101 3100 3100 3099 3096
3140 3141 3140 3140 3140 3139 3138 3137 3136 3135 3135 3134 3132 3131 3129 3127 3125 3123 3121 3119 3116 3115 3113 3112 3110 3108 3107 3106 3105 3105 3104 3104 3104 3103 3103 3102 3101 3101 3100 3099 3098 3097 3098 3096 3097 3095 3093
3138 3138 3139 3138 3138 3137 3136 3136 3135 3134 3133 3132 3131 3129 3126 3124 3122 3120 3118 3116 3114 3112 3110 3108 3107 3106 3105 3103 3103 3103 3102 3101 3101 3100 3100 3099 3099 3098 3097 3096 3096 3094 3092 3093 3093 3092 3090
3136 3136 3137 3137 3136 3136 3135 3134 3133 3132 3131 3130 3128 3126 3124 3122 3120 3117 3115 3113 3111 3110 3108 3106 3104 3106 3103 3102 3101 3100 3099 3098 3097 3096 3096 3096 3095 3093 3093 3092 3091 3090 3089 3088 3089 3089 3085
3133 3134 3134 3135 3135 3134 3134 3133 3132 3130 3128 3126 3124 3122 3121 3119 3117 3114 3112 3110 3110 3107 3104 3103 3102 3099 3098 3098 3096 3095 3094 3093 3092 3093 3092 3092 3091 3089 3089 3088 3087 3086 3084 3083 3084 3085 3080
3133 3133 3133 3133 3133 3132 3131 3130 3129 3128 3125 3124 3122 3119 3118 3116 3114 3111 3109 3107 3104 3102 3098 3096 3094 3093 3092 3091 3090 3089 3090 3090 3089 3088 3088 3089 3086 3086 3085 3084 3083 3081 3080 3079 3078 3079 3075
3131 3131 3131 3131 3130 3129 3129 3128 3126 3124 3122 3121 3118 3116 3114 3112 3110 3107 3104 3102 3099 3097 3095 3091 3089 3089 3089 3090 3088 3088 3089 3088 3087 3086 3085 3085 3085 3083 3081 3081 3079 3077 3077 3075 3075 3073 3069
3129 3129 3129 3127 3127 3127 3126 3125 3123 3122 3119 3117 3115 3113 3110 3108 3107 3103 3101 3099 3096 3094 3091 3091 3089 3089 3089 3088 3088 3087 3087 3088 3086 3084 3083 3082 3081 3080 3078 3078 3078 3072 3074 3072 3070 3069 3065
3126 3126 3126 3126 3124 3123 3123 3122 3120 3118 3116 3114 3111 3109 3106 3103 3101 3100 3098 3096 3094 3093 3093 3091 3088 3088 3088 3089 3089 3087 3086 3084 3083 3081 3081 3079 3076 3075 3073 3073 3073 3069 3067 3066 3065 3064 3061
3124 3123 3123 3122 3121 3120 3120 3118 3117 3114 3112 3110 3107 3105 3102 3100 3098 3097 3095 3093 3093 3094 3088 3089 3087 3087 3088 3086 3085 3083 3083 3082 3079 3076 3074 3072 3072 3070 3067 3067 3066 3064 3062 3061 3059 3059 3056
3121 3121 3119 3119 3118 3117 3116 3115 3113 3111 3108 3106 3104 3102 3100 3097 3096 3094 3093 3092 3093 3089 3091 3089 3087 3085 3085 3084 3082 3080 3080 3080 3080 3074 3069 3067 3064 3063 3062 3060 3060 3059 3059 3058 3058 3056 3049
3117 3117 3116 3116 3115 3114 3113 3112 3109 3107 3105 3103 3100 3098 3096 3094 3093 3092 3091 3092 3090 3088 3087 3086 3085 3084 3082 3080 3077 3077 3077 3077 3077 3073 3066 3062 3053 3058 3059 3059 3057 3055 3054 3053 3052 3051 3043
3116 3114 3113 3113 3112 3110 3109 3108 3106 3104 3102 3099 3097 3095 3094 3092 3091 3090 3090 3089 3087 3086 3086 3084 3083 3079 3079 3078 3078 3075 3073 3070 3069 3067 3067 3062 3052 3053 3054 3054 3054 3049 3046 3047 3043 3040 3039
3111 3111 3110 3109 3108 3107 3105 3104 3102 3100 3099 3097 3095 3093 3091 3089 3088 3088 3088 3087 3085 3085 3083 3082 3080 3079 3076 3075 3074 3071 3067 3065 3065 3063 3061 3059 3050 3044 3046 3046 3046 3045 3044 3040 3038 3037 3033
3107 3107 3106 3106 3105 3103 3103 3101 3099 3097 3096 3093 3092 3090 3089 3087 3086 3085 3084 3084 3082 3081 3081 3081 3078 3076 3073 3071 3068 3068 3067 3062 3059 3059 3057 3054 3052 3038 3040 3039 3038 3038 3034 3033 3030 3027 3023
3103 3104 3103 3102 3101 3100 3099 3097 3096 3094 3092 3090 3089 3088 3086 3084 3085 3082 3081 3080 3080 3077 3078 3076 3073 3070 3067 3066 3063 3063 3061 3058 3054 3051 3051 3051 3045 3036 3033 3033 3033 3032 3028 3027 3024 3018 3015
3100 3101 3100 3099 3098 3096 3096 3094 3092 3090 3089 3088 3086 3084 3083 3081 3080 3079 3078 3077 3076 3073 3072 3070 3068 3065 3063 3062 3062 3055 3054 3052 3050 3049 3047 3045 3041 3033 3026 3027 3024 3021 3021 3020 3016 3012 3008
3096 3097 3096 3095 3093 3093 3092 3090 3089 3087 3086 3085 3083 3081 3079 3078 3076 3076 3075 3073 3071 3068 3066 3065 3063 3060 3058 3055 3054 3050 3048 3047 3045 3046 3046 3042 3034 3035 3028 3023 3023 3017 3010 3010 3011 3006 3002
3093 3093 3091 3091 3090 3089 3088 3086 3085 3084 3082 3082 3079 3078 3076 3075 3073 3072 3071 3069 3066 3065 3061 3059 3056 3055 3052 3049 3045 3042 3041 3039 3038 3036 3035 3035 3027 3027 3020 3015 3014 3009 3006 3002 3001 2999 2996
3089 3089 3087 3087 3085 3085 3084 3082 3081 3080 3078 3077 3076 3075 3072 3070 3068 3066 3064 3062 3060 3058 3057 3054 3052 3050 3049 3045 3042 3035 3034 3034 3030 3029 3027 3025 3021 3017 3009 3006 3001 2997 2994 2993 2993 2991 2990
3086 3086 3084 3083 3082 3082 3081 3080 3078 3076 3074 3072 3070 3069 3067 3065 3062 3061 3059 3055 3052 3051 3050 3047 3044 3043 3043 3041 3038 3035 3032 3029 3028 3026 3023 3021 3017 3012 3003 2999 2994 2993 2989 2982 2985 2985 2982
3083 3082 3080 3079 3078 3077 3076 3076 3074 3073 3071 3068 3066 3065 3063 3059 3057 3055 3052 3051 3049 3047 3047 3044 3041 3039 3040 3037 3034 3030 3026 3024 3024 3024 3022 3019 3014 3009 3000 2996 2995 2993 2989 2984 2982 2979 2978
3079 3078 3077 3076 3074 3073 3072 3071 3071 3069 3066 3064 3062 3060 3057 3053 3051 3049 3046 3045 3045 3044 3043 3040 3039 3037 3036 3034 3030 3026 3024 3023 3021 3021 3020 3017 3014 3009 3005 2998 2993 2991 2988 2986 2984 2983 2980
3076 3074 3074 3073 3071 3069 3069 3067 3066 3064 3062 3059 3056 3054 3052 3050 3046 3044 3042 3042 3042 3041 3041 3039 3037 3035 3034 3031 3028 3026 3024 3023 3021 3020 3018 3017 3013 3011 3005 3001 2991 2992 2988 2985 2975 2982 2980
3072 3071 3071 3070 3068 3066 3064 3063 3061 3059 3056 3053 3050 3048 3045 3044 3042 3041 3039 3039 3038 3038 3039 3037 3035 3033 3031 3029 3026 3025 3024 3022 3020 3018 3015 3012 3009 3008 3004 3001 2995 2990 2988 2986 2984 2987 2978
3068 3068 3066 3066 3065 3063 3061 3059 3056 3053 3051 3049 3046 3042 3042 3038 3037 3036 3035 3035 3034 3034 3034 3034 3033 3030 3028 3027 3025 3024 3022 3020 3018 3016 3014 3012 3009 3006 3003 2998 2993 2990 2987 2987 2986 2981 2975
3065 3064 3063 3062 3060 3059 3057 3054 3052 3049 3047 3043 3041 3038 3037 3037 3036 3033 3031 3031 3032 3031 3030 3030 3030 3028 3026 3025 3024 3022 3020 3017 3013 3013 3011 3010 3009 3006 3004 2998 2993 2986 2986 2982 2978 2975 2972